Regional Weather Roundup
Issued by NWS

Home | Current Version | Previous Version | Text Only | Print | Product List | Glossary On
Versions: 1 2 3 4 5 6 7 8 9 10 11 12 13 14 15 16 17 18 19 20 21 22 23 24 25 26 27 28 29 30 31 32 33 34 35 36 37 38 39 40 41 42 43 44 45 46 47 48 49 50
000
ASUS45 KBOI 281610
RWRID
WEATHER ROUNDUP FOR IDAHO
NATIONAL WEATHER SERVICE BOISE ID
900 AM MST SUN DEC 28 2014

NOTE: "FAIR" INDICATES FEW OR NO CLOUDS BELOW 12000 FEET
WITH NO SIGNIFICANT WEATHER AND/OR OBSTRUCTIONS TO VISIBILITY

IDZ012-014-281700-
SOUTHWEST IDAHO


CITY           SKY/WX    TMP DP  RH WIND       PRES   REMARKS
BOISE          FOG       29  28  96 CALM      30.09R VSB<1/4
CALDWELL       CLOUDY    27  21  80 CALM      30.12S VSB<1/4
MOUNTAIN HOME  FOG       30  30 100 W3        30.09R VSB 1/4
$$

IDZ016-017-281700-
SOUTHCENTRAL IDAHO


CITY           SKY/WX    TMP DP  RH WIND       PRES   REMARKS
BURLEY         MIX PCPN  30  26  85 W15G21    30.01R WCI  19
JEROME         FOG       28  27  96 W10       30.04R VSB 1/4 WCI  19
TWIN FALLS     MOCLDY    32  25  75 W15       30.04R WCI  22
$$

IDZ019>023-281700-
SOUTHEAST IDAHO


CITY           SKY/WX    TMP DP  RH WIND       PRES   REMARKS
IDAHO FALLS    CLOUDY    24  21  88 W5        29.96R FOG     WCI  18
POCATELLO      FLURRIES  27  24  89 SW17      29.98R WCI  14
REXBURG        LGT SNOW  20  19  96 N3        29.95R VSB 1
$$

IDZ006-010-011-018-031-032-281700-
CENTRAL IDAHO MOUNTAINS


CITY           SKY/WX    TMP DP  RH WIND       PRES   REMARKS
MCCALL         LGT SNOW  20  18  92 CALM      29.96R FOG
HAILEY         PTCLDY    12   9  85 NW6       29.97R WCI   3
STANLEY          N/A     15  10  80 CALM      29.93R
SALMON         MOCLDY    16  12  86 NE3       29.97S
CHALLIS        MOCLDY     9   7  92 CALM      29.95R
$$

IDZ002-004-006-007-026-281700-
NORTHERN IDAHO


CITY           SKY/WX    TMP DP  RH WIND       PRES   REMARKS
LEWISTON       CLOUDY    37  32  82 S5        30.04R WCI  33
LOWELL         NOT AVBL
COEUR D`ALENE  CLOUDY    30  28  93 W7        29.98R WCI  23
MULLAN PASS    FOG       23  19  85 NW6       29.82R VSB 1/4 WCI  16
$$


USA.gov is the U.S. government's official web portal to all federal, state and local government web resources and services.